| time (UTC) | temp F | wind direction | speed MPH | gust MPH | rain 1hr in | rain 24hr in | rain mn in | humidity % | barometer mb |
| 20260506011549 | 60 | 173 | 5.0 | 18.0 | 0.00 | 0.02 | 0.01 | 70 | 1011.9 |
| 20260506010058 | 60 | 226 | 11.0 | 17.0 | 0.00 | 0.02 | 0.01 | 68 | 1011.6 |
| 20260506004549 | 61 | 219 | 8.0 | 17.0 | 0.00 | 0.02 | 0.01 | 66 | 1011.5 |
| 20260506003042 | 61 | 222 | 4.0 | 10.0 | 0.00 | 0.02 | 0.01 | 63 | 1011.4 |
| 20260506001638 | 62 | 234 | 5.0 | 17.0 | 0.00 | 0.02 | 0.01 | 60 | 1011.1 |
| 20260506000033 | 62 | 194 | 6.0 | 15.0 | 0.00 | 0.02 | 0.01 | 58 | 1010.8 |
| 20260505234546 | 63 | 215 | 6.0 | 14.0 | 0.00 | 0.02 | 0.01 | 55 | 1010.5 |
| 20260505233034 | 63 | 194 | 4.0 | 15.0 | 0.00 | 0.02 | 0.01 | 54 | 1010.2 |
| 20260505231522 | 64 | 216 | 7.0 | 16.0 | 0.00 | 0.02 | 0.01 | 50 | 1009.9 |
| 20260505230019 | 65 | 198 | 8.0 | 18.0 | 0.00 | 0.02 | 0.01 | 48 | 1009.6 |
| 20260505224518 | 65 | 219 | 9.0 | 17.0 | 0.00 | 0.02 | 0.01 | 46 | 1009.6 |
| 20260505223015 | 66 | 215 | 8.0 | 20.0 | 0.00 | 0.02 | 0.01 | 46 | 1009.5 |
| 20260505221512 | 66 | 236 | 8.0 | 25.0 | 0.00 | 0.02 | 0.01 | 45 | 1009.5 |
| 20260505220010 | 67 | 254 | 12.0 | 21.0 | 0.00 | 0.02 | 0.01 | 44 | 1009.5 |
| 20260505214625 | 67 | 262 | 13.0 | 29.0 | 0.00 | 0.02 | 0.01 | 44 | 1009.2 |
| 20260505213007 | 68 | 184 | 10.0 | 24.0 | 0.00 | 0.02 | 0.01 | 43 | 1009.1 |
| 20260505211502 | 68 | 169 | 14.0 | 24.0 | 0.00 | 0.02 | 0.01 | 43 | 1009.3 |
| 20260505210103 | 69 | 248 | 15.0 | 27.0 | 0.00 | 0.02 | 0.01 | 43 | 1009.4 |
| 20260505204605 | 70 | 200 | 15.0 | 30.0 | 0.00 | 0.02 | 0.01 | 42 | 1009.3 |
| 20260505203058 | 71 | 155 | 15.0 | 34.0 | 0.00 | 0.02 | 0.01 | 43 | 1009.2 |
| 20260505201554 | 71 | 192 | 15.0 | 31.0 | 0.00 | 0.02 | 0.01 | 42 | 1009.3 |
| 20260505194553 | 74 | 233 | 11.0 | 20.0 | 0.00 | 0.02 | 0.01 | 38 | 1008.9 |
| 20260505193049 | 74 | 205 | 13.0 | 31.0 | 0.00 | 0.02 | 0.01 | 37 | 1008.6 |
| 20260505191540 | 74 | 213 | 11.0 | 26.0 | 0.00 | 0.02 | 0.01 | 39 | 1008.4 |
| 20260505190039 | 74 | 217 | 14.0 | 26.0 | 0.00 | 0.02 | 0.01 | 39 | 1008.5 |
| 20260505184535 | 74 | 233 | 11.0 | 25.0 | 0.00 | 0.02 | 0.01 | 38 | 1008.5 |
| 20260505183036 | 75 | 226 | 11.0 | 22.0 | 0.00 | 0.02 | 0.01 | 34 | 1008.5 |
| 20260505181529 | 74 | 228 | 10.0 | 22.0 | 0.00 | 0.02 | 0.01 | 37 | 1008.6 |
| 20260505180051 | 74 | 205 | 12.0 | 25.0 | 0.01 | 0.02 | 0.01 | 38 | 1008.8 |
| 20260505174545 | 73 | 205 | 13.0 | 28.0 | 0.01 | 0.02 | 0.01 | 39 | 1008.9 |
| 20260505173027 | 74 | 216 | 12.0 | 28.0 | 0.01 | 0.02 | 0.01 | 40 | 1008.9 |
| 20260505171523 | 73 | 171 | 12.0 | 36.0 | 0.01 | 0.02 | 0.01 | 41 | 1008.8 |
| 20260505170013 | 73 | 180 | 11.0 | 27.0 | 0.00 | 0.01 | 0.00 | 43 | 1008.9 |
| 20260505164511 | 71 | 171 | 8.0 | 17.0 | 0.00 | 0.02 | 0.00 | 45 | 1009.0 |
| 20260505163006 | 70 | 219 | 11.0 | 18.0 | 0.00 | 0.02 | 0.00 | 48 | 1009.1 |
| 20260505161621 | 69 | 201 | 11.0 | 17.0 | 0.00 | 0.02 | 0.00 | 50 | 1009.0 |
| 20260505153046 | 66 | 207 | 8.0 | 15.0 | 0.00 | 0.09 | 0.00 | 57 | 1009.3 |
| 20260505151543 | 66 | 193 | 6.0 | 14.0 | 0.00 | 0.09 | 0.00 | 57 | 1009.3 |
| 20260505124555 | 55 | 172 | 8.0 | 14.0 | 0.00 | 0.41 | 0.00 | 68 | 1009.4 |
| 20260505123059 | 54 | 156 | 10.0 | 17.0 | 0.00 | 0.41 | 0.00 | 71 | 1009.6 |
| 20260505121543 | 53 | 167 | 7.0 | 14.0 | 0.00 | 0.41 | 0.00 | 72 | 1009.6 |
| 20260505120041 | 52 | 148 | 8.0 | 15.0 | 0.00 | 0.41 | 0.00 | 75 | 1009.4 |
| 20260505114533 | 51 | 173 | 9.0 | 17.0 | 0.00 | 0.52 | 0.00 | 78 | 1009.6 |
| 20260505113028 | 50 | 165 | 6.0 | 14.0 | 0.00 | 0.52 | 0.00 | 80 | 1009.4 |
| 20260505111523 | 49 | 171 | 7.0 | 11.0 | 0.00 | 0.52 | 0.00 | 82 | 1009.6 |
| 20260505101508 | 43 | 226 | 5.0 | 10.0 | 0.00 | 0.61 | 0.00 | 88 | 1009.1 |
| 20260505100101 | 41 | 222 | 1.0 | 5.0 | 0.00 | 0.61 | 0.00 | 89 | 1008.8 |
| 20260505094558 | 40 | 221 | 1.0 | 4.0 | 0.00 | 0.70 | 0.00 | 89 | 1008.7 |
| 20260505093054 | 40 | 221 | 0.0 | 3.0 | 0.00 | 0.70 | 0.00 | 88 | 1008.4 |
| 20260505091609 | 40 | 219 | 1.0 | 7.0 | 0.00 | 0.70 | 0.00 | 88 | 1008.2 |
| 20260505090048 | 40 | 223 | 2.0 | 5.0 | 0.00 | 0.70 | 0.00 | 88 | 1008.1 |
| 20260505084544 | 41 | 200 | 2.0 | 6.0 | 0.00 | 0.78 | 0.00 | 87 | 1008.2 |
| 20260505083041 | 42 | 186 | 3.0 | 8.0 | 0.00 | 0.78 | 0.00 | 87 | 1008.0 |
| 20260505081540 | 42 | 200 | 4.0 | 10.0 | 0.00 | 0.78 | 0.00 | 87 | 1007.9 |
| 20260505080037 | 42 | 176 | 5.0 | 12.0 | 0.00 | 0.78 | 0.00 | 87 | 1007.6 |
| 20260505074530 | 41 | 251 | 1.0 | 8.0 | 0.00 | 0.84 | 0.00 | 87 | 1007.3 |
| 20260505073027 | 42 | 360 | 0.0 | 7.0 | 0.00 | 0.84 | 0.00 | 87 | 1007.2 |
| 20260505071521 | 42 | 286 | 2.0 | 10.0 | 0.00 | 0.84 | 0.00 | 87 | 1006.8 |
| 20260505070019 | 42 | 190 | 4.0 | 11.0 | 0.00 | 0.84 | 0.00 | 87 | 1006.6 |
| 20260505064515 | 42 | 298 | 0.0 | 9.0 | 0.00 | 0.89 | 0.00 | 87 | 1006.3 |
| 20260505063011 | 42 | 267 | 2.0 | 10.0 | 0.00 | 0.89 | 0.00 | 87 | 1006.1 |
| 20260505061508 | 42 | 254 | 0.0 | 9.0 | 0.00 | 0.89 | 0.00 | 87 | 1005.6 |
| 20260505060105 | 42 | 202 | 3.0 | 10.0 | 0.00 | 0.89 | 0.00 | 86 | 1005.2 |
| 20260505054559 | 43 | 223 | 5.0 | 11.0 | 0.00 | 0.91 | 0.00 | 86 | 1005.1 |
| 20260505053151 | 43 | 221 | 3.0 | 11.0 | 0.00 | 0.91 | 0.00 | 86 | 1004.9 |
| 20260505051607 | 43 | 190 | 3.0 | 10.0 | 0.00 | 0.91 | 0.00 | 86 | 1004.9 |
| 20260505041532 | 44 | 269 | 4.0 | 10.0 | 0.00 | 0.91 | 0.00 | 85 | 1004.1 |
| 20260505040027 | 44 | 212 | 3.0 | 7.0 | 0.00 | 0.91 | 0.00 | 85 | 1003.9 |
| 20260505034522 | 45 | 252 | 1.0 | 9.0 | 0.00 | 0.91 | 0.00 | 85 | 1003.8 |
| 20260505033018 | 44 | 252 | 5.0 | 10.0 | 0.00 | 0.91 | 0.00 | 86 | 1003.5 |
| 20260505031516 | 44 | 223 | 0.0 | 4.0 | 0.01 | 0.91 | 0.00 | 87 | 1003.5 |
| 20260505030016 | 44 | 150 | 1.0 | 8.0 | 0.01 | 0.91 | 0.00 | 87 | 1003.5 |
| 20260505024510 | 44 | 223 | 0.0 | 6.0 | 0.01 | 0.91 | 0.91 | 86 | 1003.2 |
| 20260505023005 | 46 | 260 | 2.0 | 7.0 | 0.01 | 0.91 | 0.91 | 83 | 1003.0 |
| 20260505021511 | 47 | 228 | 5.0 | 11.0 | 0.00 | 0.90 | 0.90 | 79 | 1003.0 |
| 20260505020108 | 47 | 225 | 3.0 | 11.0 | 0.00 | 0.90 | 0.90 | 80 | 1002.5 |
| 20260505014558 | 48 | 171 | 5.0 | 14.0 | 0.00 | 0.91 | 0.90 | 77 | 1002.4 |
| 20260505013104 | 48 | 212 | 7.0 | 16.0 | 0.00 | 0.91 | 0.90 | 77 | 1002.2 |